Tracking 35055 objects as of 18-Aug-2026
HD Live streaming from Space Station
objects crossing your sky now

AEPEX

Track AEPEX now!
10-day predictions
AEPEX is classified as:


NORAD ID: 68506
Int'l Code: 2026-067CU
Launch date: March 30, 2026
Source: United States (US)
Launch site: AIR FORCE WESTERN TEST RANGE (AFWTR)

Uplink (MHz):
Downlink (MHz): 437.325/2405.000
Beacon (MHz):
Mode: 9k6*/19k2GFSK
Call sign: APX
Status: Active

Your satellite tracking list
Your tracking list is empty




NASA's NSSDC Master Catalog

Two Line Element Set (TLE):
1 68506U 26067CU  26229.83476789  .00006042  00000-0  28482-3 0  9998
2 68506  97.4561 187.5187 0001813 189.6303 170.4898 15.19858139 21188
Source of the keplerian elements: AFSPC